AAL4780 KBOS-KSYR

Flight info

Callsign AAL4780
Flight time 0h 49m
Altitude 24000
Route HYLND7 HYLND MANCH CAM LAMMS/N0363F160 T608 SYR
Aircraft A321/M-SDE3FGHIRWY/LB1

Departure

Time 2026-04-17 00:25
Airport Boston Logan International Airport (KBOS)

Arrival

Time 2026-04-17 01:15
Airport Syracuse Hancock International Airport (KSYR)
Time Latitude Longitude Altitude Speed Heading
2026-04-17 00:04 42.36118 -71.02122 26 ft 0 kts 25°
2026-04-17 00:17 42.36112 -71.02126 26 ft 2 kts 25°
2026-04-17 00:17 42.36098 -71.02137 31 ft 2 kts 34°
2026-04-17 00:17 42.36085 -71.02151 27 ft 2 kts 54°
2026-04-17 00:17 42.36077 -71.02171 27 ft 2 kts 101°
2026-04-17 00:18 42.36082 -71.02191 28 ft 2 kts 118°
2026-04-17 00:18 42.36084 -71.02195 29 ft 0 kts 122°
2026-04-17 00:20 42.36082 -71.02190 29 ft 2 kts 121°
2026-04-17 00:20 42.36046 -71.02108 29 ft 14 kts 121°
2026-04-17 00:21 42.35991 -71.01984 29 ft 16 kts 121°
2026-04-17 00:21 42.35932 -71.01845 26 ft 18 kts 116°
2026-04-17 00:21 42.35899 -71.01678 30 ft 19 kts 102°
2026-04-17 00:21 42.35875 -71.01495 30 ft 20 kts 101°
2026-04-17 00:22 42.35809 -71.01245 26 ft 13 kts 172°
2026-04-17 00:22 42.35713 -71.01282 28 ft 15 kts 199°
2026-04-17 00:22 42.35675 -71.01301 26 ft 1 kts 200°
2026-04-17 00:23 42.35642 -71.01315 27 ft 11 kts 192°
2026-04-17 00:23 42.35583 -71.01260 27 ft 12 kts 88°
2026-04-17 00:23 42.35586 -71.01241 26 ft 0 kts 78°
2026-04-17 00:25 42.35601 -71.01148 28 ft 38 kts 76°
2026-04-17 00:25 42.35727 -71.00439 26 ft 115 kts 76°
2026-04-17 00:25 42.35951 -70.99133 205 ft 159 kts 79°
2026-04-17 00:25 42.36130 -70.97576 781 ft 176 kts 81°
2026-04-17 00:26 42.36371 -70.95903 1379 ft 190 kts 85°
2026-04-17 00:26 42.36628 -70.94062 1855 ft 209 kts 83°
2026-04-17 00:26 42.36963 -70.92060 2180 ft 230 kts 79°
2026-04-17 00:26 42.37387 -70.89856 2404 ft 253 kts 77°
2026-04-17 00:27 42.37857 -70.87452 2649 ft 276 kts 77°
2026-04-17 00:27 42.38356 -70.84850 3116 ft 292 kts 77°
2026-04-17 00:27 42.38945 -70.82198 3846 ft 297 kts 64°
2026-04-17 00:27 42.40252 -70.80050 4610 ft 298 kts 35°
2026-04-17 00:28 42.41946 -70.78448 5439 ft 297 kts 26°
2026-04-17 00:28 42.43858 -70.77436 6249 ft 294 kts
2026-04-17 00:28 42.45790 -70.77223 6974 ft 289 kts 350°
2026-04-17 00:28 42.47731 -70.77742 7741 ft 283 kts 334°
2026-04-17 00:29 42.49542 -70.78755 8530 ft 282 kts 329°
2026-04-17 00:29 42.51197 -70.80125 9311 ft 276 kts 314°
2026-04-17 00:29 42.52497 -70.81991 10063 ft 271 kts 301°
2026-04-17 00:29 42.53615 -70.84144 10398 ft 290 kts 300°
2026-04-17 00:30 42.54828 -70.86464 10544 ft 313 kts 301°
2026-04-17 00:30 42.56172 -70.88910 10821 ft 330 kts 303°
2026-04-17 00:30 42.57592 -70.91400 11409 ft 336 kts 303°
2026-04-17 00:30 42.59041 -70.93905 12059 ft 339 kts 304°
2026-04-17 00:31 42.60504 -70.96431 12726 ft 342 kts 304°
2026-04-17 00:31 42.61960 -70.98958 13384 ft 345 kts 303°
2026-04-17 00:31 42.63437 -71.01542 13992 ft 348 kts 303°
2026-04-17 00:31 42.64923 -71.04160 14599 ft 351 kts 303°
2026-04-17 00:32 42.66411 -71.06792 15200 ft 353 kts 303°
2026-04-17 00:32 42.67912 -71.09454 15793 ft 356 kts 303°
2026-04-17 00:32 42.69419 -71.12131 16394 ft 358 kts 303°
2026-04-17 00:32 42.70943 -71.14831 16981 ft 361 kts 303°
2026-04-17 00:33 42.72471 -71.17544 17566 ft 363 kts 302°
2026-04-17 00:33 42.74015 -71.20290 18137 ft 366 kts 302°
2026-04-17 00:33 42.75564 -71.23049 18616 ft 368 kts 302°
2026-04-17 00:33 42.77128 -71.25829 19088 ft 371 kts 303°
2026-04-17 00:34 42.78920 -71.28387 19550 ft 380 kts 313°
2026-04-17 00:34 42.81024 -71.30616 19984 ft 384 kts 316°
2026-04-17 00:34 42.83151 -71.32845 20434 ft 385 kts 314°
2026-04-17 00:34 42.85005 -71.35419 20877 ft 378 kts 302°
2026-04-17 00:35 42.86379 -71.38435 21318 ft 372 kts 290°
2026-04-17 00:35 42.87232 -71.41729 21782 ft 368 kts 279°
2026-04-17 00:35 42.87575 -71.44906 22208 ft 367 kts 272°
2026-04-17 00:35 42.87747 -71.48106 22594 ft 368 kts 271°
2026-04-17 00:36 42.87969 -71.51545 23045 ft 370 kts 272°
2026-04-17 00:36 42.88228 -71.55052 23360 ft 376 kts 272°
2026-04-17 00:36 42.88500 -71.58645 23496 ft 385 kts 272°
2026-04-17 00:36 42.88775 -71.62316 23608 ft 394 kts 272°
2026-04-17 00:37 42.89047 -71.66056 23770 ft 399 kts 272°
2026-04-17 00:37 42.89314 -71.69834 23832 ft 400 kts 272°
2026-04-17 00:37 42.89578 -71.73603 23845 ft 400 kts 272°
2026-04-17 00:37 42.89841 -71.77387 23841 ft 400 kts 272°
2026-04-17 00:38 42.90098 -71.81158 23841 ft 399 kts 272°
2026-04-17 00:38 42.90353 -71.84928 23838 ft 399 kts 272°
2026-04-17 00:38 42.90607 -71.88700 23842 ft 399 kts 272°
2026-04-17 00:38 42.90859 -71.92473 23838 ft 399 kts 272°
2026-04-17 00:39 42.91107 -71.96246 23840 ft 399 kts 272°
2026-04-17 00:39 42.91353 -72.00020 23840 ft 399 kts 272°
2026-04-17 00:39 42.91598 -72.03789 23840 ft 399 kts 272°
2026-04-17 00:39 42.91843 -72.07563 23837 ft 399 kts 272°
2026-04-17 00:40 42.92085 -72.11288 23810 ft 399 kts 272°
2026-04-17 00:40 42.92332 -72.15066 23810 ft 399 kts 272°
2026-04-17 00:40 42.92577 -72.18832 23814 ft 399 kts 272°
2026-04-17 00:40 42.92819 -72.22612 23812 ft 399 kts 271°
2026-04-17 00:41 42.93058 -72.26381 23812 ft 399 kts 271°
2026-04-17 00:41 42.93299 -72.30156 23811 ft 399 kts 271°
2026-04-17 00:41 42.93539 -72.33917 23811 ft 399 kts 271°
2026-04-17 00:41 42.93701 -72.36469 23812 ft 398 kts 271°
2026-04-17 00:42 42.93936 -72.40179 23810 ft 399 kts 271°
2026-04-17 00:42 42.94174 -72.43941 23809 ft 399 kts 271°
2026-04-17 00:42 42.94410 -72.47716 23806 ft 398 kts 271°
2026-04-17 00:42 42.94643 -72.51488 23805 ft 398 kts 271°
2026-04-17 00:43 42.94875 -72.55253 23798 ft 398 kts 271°
2026-04-17 00:43 42.95104 -72.59017 23801 ft 398 kts 271°
2026-04-17 00:43 42.95330 -72.62784 23799 ft 398 kts 271°
2026-04-17 00:43 42.95554 -72.66550 23797 ft 398 kts 271°
2026-04-17 00:44 42.95778 -72.70312 23789 ft 398 kts 271°
2026-04-17 00:44 42.96003 -72.74081 23789 ft 398 kts 271°
2026-04-17 00:44 42.96227 -72.77841 23786 ft 398 kts 271°
2026-04-17 00:44 42.96448 -72.81608 23794 ft 399 kts 271°
2026-04-17 00:45 42.96669 -72.85385 23786 ft 398 kts 271°
2026-04-17 00:45 42.96889 -72.89148 23789 ft 398 kts 271°
2026-04-17 00:45 42.97110 -72.92918 23797 ft 398 kts 271°
2026-04-17 00:45 42.97332 -72.96691 23787 ft 398 kts 271°
2026-04-17 00:46 42.97549 -73.00410 23787 ft 398 kts 271°
2026-04-17 00:46 42.97761 -73.04170 23782 ft 397 kts 271°
2026-04-17 00:46 42.97971 -73.07927 23781 ft 397 kts 271°
2026-04-17 00:46 42.98183 -73.11697 23777 ft 398 kts 271°
2026-04-17 00:47 42.98394 -73.15465 23777 ft 399 kts 271°
2026-04-17 00:47 42.98604 -73.19238 23780 ft 399 kts 271°
2026-04-17 00:47 42.98814 -73.23018 23782 ft 399 kts 271°
2026-04-17 00:47 42.99021 -73.26794 23783 ft 399 kts 270°
2026-04-17 00:48 42.99226 -73.30566 23778 ft 399 kts 270°
2026-04-17 00:48 42.99429 -73.34342 23780 ft 398 kts 270°
2026-04-17 00:48 42.99589 -73.38120 23781 ft 398 kts 269°
2026-04-17 00:48 42.99695 -73.41882 23779 ft 397 kts 269°
2026-04-17 00:49 42.99771 -73.45661 23778 ft 397 kts 268°
2026-04-17 00:49 42.99838 -73.49431 23776 ft 397 kts 268°
2026-04-17 00:49 42.99907 -73.53204 23774 ft 397 kts 268°
2026-04-17 00:49 42.99983 -73.56970 23775 ft 398 kts 268°
2026-04-17 00:50 43.00067 -73.60747 23772 ft 398 kts 268°
2026-04-17 00:50 43.00153 -73.64523 23759 ft 398 kts 268°
2026-04-17 00:50 43.00240 -73.68295 23760 ft 398 kts 268°
2026-04-17 00:50 43.00328 -73.72080 23759 ft 398 kts 268°
2026-04-17 00:51 43.00416 -73.75857 23760 ft 398 kts 268°
2026-04-17 00:51 43.00503 -73.79642 23758 ft 398 kts 268°
2026-04-17 00:51 43.00587 -73.83426 23759 ft 399 kts 268°
2026-04-17 00:51 43.00667 -73.87157 23759 ft 399 kts 268°
2026-04-17 00:52 43.00746 -73.90947 23759 ft 399 kts 268°
2026-04-17 00:52 43.00821 -73.94743 23690 ft 398 kts 268°
2026-04-17 00:52 43.00897 -73.98493 23019 ft 393 kts 268°
2026-04-17 00:52 43.00972 -74.02204 22190 ft 389 kts 269°
2026-04-17 00:53 43.01045 -74.05873 21398 ft 385 kts 269°
2026-04-17 00:53 43.01113 -74.09502 20623 ft 381 kts 269°
2026-04-17 00:53 43.01180 -74.13102 19866 ft 377 kts 269°
2026-04-17 00:53 43.01247 -74.16669 19124 ft 373 kts 270°
2026-04-17 00:54 43.01313 -74.20196 18401 ft 370 kts 270°
2026-04-17 00:54 43.01375 -74.23687 17631 ft 367 kts 270°
2026-04-17 00:54 43.01436 -74.27173 16845 ft 365 kts 270°
2026-04-17 00:54 43.01494 -74.30617 16111 ft 362 kts 270°
2026-04-17 00:55 43.01552 -74.34043 15394 ft 359 kts 270°
2026-04-17 00:55 43.01610 -74.37435 14729 ft 357 kts 269°
2026-04-17 00:55 43.01666 -74.40815 14019 ft 355 kts 269°
2026-04-17 00:55 43.01718 -74.44177 13286 ft 352 kts 269°
2026-04-17 00:56 43.01769 -74.47508 12514 ft 349 kts 269°
2026-04-17 00:56 43.01820 -74.50812 11762 ft 346 kts 269°
2026-04-17 00:56 43.01870 -74.54078 11187 ft 343 kts 268°
2026-04-17 00:56 43.01918 -74.57352 11017 ft 345 kts 268°
2026-04-17 00:57 43.01964 -74.60586 10995 ft 344 kts 268°
2026-04-17 00:57 43.02010 -74.63897 11005 ft 345 kts 268°
2026-04-17 00:57 43.02054 -74.67111 10624 ft 340 kts 268°
2026-04-17 00:57 43.02099 -74.70330 9904 ft 338 kts 268°
2026-04-17 00:58 43.02147 -74.73527 9164 ft 335 kts 269°
2026-04-17 00:58 43.02194 -74.76691 8432 ft 332 kts 269°
2026-04-17 00:58 43.02237 -74.79823 7729 ft 328 kts 269°
2026-04-17 00:58 43.02277 -74.82930 7178 ft 325 kts 269°
2026-04-17 00:59 43.02311 -74.86030 7015 ft 326 kts 269°
2026-04-17 00:59 43.02343 -74.89117 7003 ft 326 kts 270°
2026-04-17 00:59 43.02378 -74.92214 7001 ft 326 kts 270°
2026-04-17 00:59 43.02415 -74.95310 7003 ft 325 kts 270°
2026-04-17 01:00 43.02453 -74.98341 6969 ft 309 kts 270°
2026-04-17 01:00 43.02486 -75.01175 6847 ft 287 kts 270°
2026-04-17 01:00 43.02518 -75.03790 6714 ft 264 kts 270°
2026-04-17 01:00 43.02548 -75.06239 6307 ft 254 kts 270°
2026-04-17 01:01 43.02573 -75.08633 5747 ft 250 kts 270°
2026-04-17 01:01 43.02591 -75.10986 5175 ft 245 kts 270°
2026-04-17 01:01 43.02612 -75.13305 5024 ft 247 kts 271°
2026-04-17 01:01 43.02641 -75.15655 5014 ft 248 kts 273°
2026-04-17 01:02 43.02845 -75.18001 5025 ft 250 kts 280°
2026-04-17 01:02 43.03158 -75.20331 5025 ft 249 kts 280°
2026-04-17 01:02 43.03465 -75.22631 5027 ft 249 kts 280°
2026-04-17 01:02 43.03777 -75.24958 5031 ft 249 kts 279°
2026-04-17 01:03 43.04091 -75.27285 5034 ft 249 kts 279°
2026-04-17 01:03 43.04402 -75.29614 5041 ft 249 kts 279°
2026-04-17 01:03 43.04711 -75.31948 5041 ft 249 kts 279°
2026-04-17 01:03 43.05021 -75.34283 5048 ft 249 kts 279°
2026-04-17 01:04 43.05328 -75.36601 5040 ft 245 kts 279°
2026-04-17 01:04 43.05625 -75.38850 4841 ft 237 kts 279°
2026-04-17 01:04 43.05916 -75.41052 4371 ft 235 kts 279°
2026-04-17 01:04 43.06202 -75.43241 4073 ft 231 kts 279°
2026-04-17 01:05 43.06489 -75.45428 4054 ft 236 kts 278°
2026-04-17 01:05 43.06778 -75.47652 4053 ft 238 kts 279°
2026-04-17 01:05 43.07069 -75.49883 4050 ft 239 kts 279°
2026-04-17 01:05 43.07356 -75.52107 4046 ft 235 kts 278°
2026-04-17 01:06 43.07639 -75.54287 4046 ft 231 kts 279°
2026-04-17 01:06 43.07922 -75.56452 4045 ft 231 kts 279°
2026-04-17 01:06 43.08166 -75.58321 4044 ft 233 kts 279°
2026-04-17 01:06 43.08397 -75.60122 4043 ft 235 kts 279°
2026-04-17 01:07 43.08680 -75.62327 4035 ft 237 kts 279°
2026-04-17 01:07 43.08968 -75.64543 3965 ft 233 kts 279°
2026-04-17 01:07 43.09247 -75.66676 3847 ft 221 kts 279°
2026-04-17 01:07 43.09509 -75.68687 3749 ft 208 kts 280°
2026-04-17 01:08 43.09756 -75.70609 3368 ft 205 kts 280°
2026-04-17 01:08 43.10001 -75.72511 3042 ft 207 kts 281°
2026-04-17 01:08 43.10252 -75.74464 3019 ft 208 kts 281°
2026-04-17 01:08 43.10502 -75.76411 3023 ft 208 kts 280°
2026-04-17 01:09 43.10750 -75.78353 3027 ft 203 kts 280°
2026-04-17 01:09 43.10986 -75.80189 2883 ft 191 kts 279°
2026-04-17 01:09 43.11213 -75.81962 2589 ft 189 kts 279°
2026-04-17 01:09 43.11440 -75.83749 2553 ft 191 kts 278°
2026-04-17 01:10 43.11589 -75.85553 2553 ft 191 kts 272°
2026-04-17 01:10 43.11598 -75.87276 2552 ft 174 kts 269°
2026-04-17 01:10 43.11565 -75.88906 2556 ft 171 kts 269°
2026-04-17 01:10 43.11520 -75.90521 2561 ft 169 kts 268°
2026-04-17 01:11 43.11473 -75.92122 2566 ft 166 kts 268°
2026-04-17 01:11 43.11425 -75.93672 2540 ft 161 kts 268°
2026-04-17 01:11 43.11379 -75.95171 2422 ft 153 kts 268°
2026-04-17 01:11 43.11336 -75.96526 2248 ft 134 kts 268°
2026-04-17 01:12 43.11297 -75.97767 2087 ft 129 kts 269°
2026-04-17 01:12 43.11259 -75.98978 1922 ft 127 kts 268°
2026-04-17 01:12 43.11221 -76.00185 1761 ft 128 kts 268°
2026-04-17 01:12 43.11182 -76.01406 1594 ft 129 kts 266°
2026-04-17 01:13 43.11150 -76.02637 1399 ft 131 kts 269°
2026-04-17 01:13 43.11116 -76.03782 1229 ft 135 kts 268°
2026-04-17 01:13 43.11067 -76.04830 1071 ft 134 kts 266°
2026-04-17 01:13 43.11038 -76.05681 941 ft 134 kts 272°
2026-04-17 01:14 43.11007 -76.06980 824 ft 137 kts 270°
2026-04-17 01:14 43.10947 -76.08275 666 ft 139 kts 272°
2026-04-17 01:14 43.10916 -76.09593 440 ft 137 kts 270°
2026-04-17 01:14 43.10883 -76.10743 424 ft 99 kts 268°
2026-04-17 01:15 43.10860 -76.11456 426 ft 57 kts 266°
2026-04-17 01:15 43.10866 -76.11801 416 ft 21 kts 309°
2026-04-17 01:15 43.10901 -76.11823 420 ft 20 kts 356°
2026-04-17 01:15 43.10933 -76.11817 418 ft 0 kts
2026-04-17 01:16 43.10937 -76.11816 417 ft 4 kts
2026-04-17 01:16 43.10945 -76.11814 419 ft 6 kts 15°
2026-04-17 01:16 43.10972 -76.11770 423 ft 9 kts 80°
2026-04-17 01:16 43.10974 -76.11664 424 ft 13 kts 89°
2026-04-17 01:17 43.10978 -76.11534 424 ft 14 kts 88°
2026-04-17 01:17 43.10984 -76.11393 419 ft 17 kts 88°
2026-04-17 01:17 43.10992 -76.11230 425 ft 18 kts 84°
2026-04-17 01:17 43.11070 -76.11152 424 ft 14 kts 344°
2026-04-17 01:18 43.11165 -76.11107 418 ft 20 kts 54°
2026-04-17 01:18 43.11204 -76.10899 416 ft 19 kts 77°
2026-04-17 01:18 43.11253 -76.10833 418 ft 4 kts 344°
2026-04-17 01:18 43.11269 -76.10865 416 ft 5 kts 293°
2026-04-17 01:19 43.11272 -76.10875 414 ft 2 kts 294°
2026-04-17 01:19 43.11273 -76.10877 414 ft 0 kts 294°